Regional Weather Roundup
Issued by NWS

Home | Current Version | Previous Version | Text Only | Print | Product List | Glossary On
Versions: 1 2 3 4 5 6 7 8 9 10 11 12 13 14 15 16 17 18 19 20 21 22 23 24 25 26 27 28 29 30 31 32 33 34 35 36 37 38 39 40 41 42 43 44 45 46 47 48 49 50
000
ASUS43 KMKX 301021
RWRWI

WISCONSIN REGIONAL WEATHER ROUNDUP
NATIONAL WEATHER SERVICE MILWAUKEE/SULLIVAN WI
500 AM CDT MON MAR 30 2015

NOTE: "FAIR" INDICATES FEW OR NO CLOUDS BELOW 12,000 FEET WITH NO
SIGNIFICANT WEATHER AND/OR OBSTRUCTIONS TO VISIBILITY.

WIZ001-002-006>008-014>016-023>028-301100-
NORTHWEST WISCONSIN

CITY           SKY/WX    TMP DP  RH WIND       PRES   REMARKS
SUPERIOR ARPT  CLEAR     31  25  81 SW6       29.88R WCI  25
ASHLAND        CLEAR     35  25  66 W7        29.85R WCI  29
HAYWARD        CLEAR     35  24  64 W5        29.89R WCI  31
SIREN          CLEAR     32  25  73 W6        29.92R WCI  27
CUMBERLAND     CLEAR     32  25  74 W6        29.91S WCI  26
RICE LAKE      CLEAR     34  26  71 W7        29.93R WCI  28
CHETEK         CLEAR     34  25  69 W3        29.92R
LADYSMITH      CLEAR     33  26  76 W6        29.91R WCI  27
EAU CLAIRE     MOCLDY    30  23  75 CALM      29.93R
MENOMONIE      MOCLDY    38  25  60 SW7       29.93S WCI  33
NEW RICHMOND   MOCLDY    32  27  81 CALM      29.94S
OSCEOLA        MOCLDY    34  28  78 CALM      29.96S
$$

WIZ003>005-009-010-017-018-301100-
NORTH CENTRAL WISCONSIN

CITY           SKY/WX    TMP DP  RH WIND       PRES   REMARKS
MANITOWISH WTR CLEAR     32  26  80 W7        29.81R WCI  25
ARBOR VITAE    CLEAR     34  28  77 W5        29.81R WCI  30
WOODRUFF       CLEAR     34  28  77 W5        29.81R WCI  30
RHINELANDER    CLEAR     31  25  78 W12       29.82R WCI  22
EAGLE RIVER    CLEAR     32  24  72 W8        29.79R WCI  25
LAND O LAKES   CLEAR     33  26  77 W8        29.79R WCI  26
PHILLIPS       CLEAR     31  25  78 W5        29.86R WCI  27
TOMAHAWK       CLEAR     34  26  71 W10       29.84S WCI  26
MEDFORD        CLEAR     32  26  77 W8        29.88R WCI  25
MERRILL        CLEAR     32  27  80 W8        29.86R WCI  25
$$

WIZ029-030-035-036-043>047-301100-
CENTRAL WISCONSIN

CITY           SKY/WX    TMP DP  RH WIND       PRES   REMARKS
WAUSAU         CLEAR     34  26  72 W13       29.85S WCI  25
MOSINEE        CLEAR     32  28  86 W8        29.89R WCI  25
MARSHFIELD     CLEAR     35  26  69 W10       29.90R WCI  27
STEVENS POINT  CLEAR     33  25  74 W9        29.89S WCI  25
WAUPACA        CLEAR     34  27  74 W7        29.89S WCI  28
WAUTOMA        CLEAR     28  25  89 CALM      29.92R
WISC RAPIDS    CLEAR     32  24  72 W7        29.92S WCI  26
CAMP DOUGLAS   CLEAR     32  30  91 W7        29.94R WCI  26
$$

WIZ011>013-019>022-031-037>040-048>050-301100-
NORTHEAST WISCONSIN

CITY           SKY/WX    TMP DP  RH WIND       PRES   REMARKS
ANTIGO         CLEAR     33  27  78 W12       29.83R WCI  24
SHAWANO        CLEAR     35  28  76 SW6       29.85S WCI  30
OCONTO         CLEAR     35  28  78 W9        29.82S WCI  27
STURGEON BAY   CLEAR     36  27  69 W14       29.82S WCI  27
GREEN BAY      CLEAR     35  29  78 SW9       29.86S WCI  28
MANITOWOC      CLEAR     37  30  75 W12       29.86S WCI  29
APPLETON       CLEAR     32  27  80 SW9       29.88S WCI  24
CLINTONVILLE   CLEAR     34  28  80 W10       29.86S WCI  26
OSHKOSH        CLEAR     35  26  69 W7        29.89S WCI  29
$$

WIZ032>034-041-042-053>061-301100-
SOUTHWEST WISCONSIN

CITY           SKY/WX    TMP DP  RH WIND       PRES   REMARKS
LA CROSSE      CLOUDY    34  28  79 SE5       29.98R WCI  30
SPARTA         CLEAR     35  27  75 SW3       29.97R
VIROQUA        PTCLDY    35  28  77 SW7       29.96S WCI  29
BOSCOBEL       MOCLDY    32  27  81 SW5       30.00R WCI  27
PRAIRIE DU CHI CLEAR     36  28  71 NW3       30.01R
PLATTEVILLE    CLEAR     35  29  78 SW6       30.00R WCI  30
$$

WIZ056-057-062-063-064-067-068-301100-
SOUTH CENTRAL WISCONSIN

CITY           SKY/WX    TMP DP  RH WIND       PRES   REMARKS
REEDSBURG      CLEAR     28  26  92 CALM      29.96R
BARABOO/DELLS  CLEAR     34  26  74 W6        29.95R WCI  28
LONE ROCK      CLEAR     38  28  67 W12       29.99R WCI  30
MINERAL POINT  CLEAR     36  28  75 W6        29.98R WCI  31
MADISON        CLEAR     36  27  69 VRB5      29.96R WCI  32
MIDDLETON      CLEAR     33  27  76 CALM      29.97R
WATERTOWN      CLEAR     33  28  85 W5        29.94S WCI  28
MONROE         FAIR      34  30  86 W15       29.98R WCI  24
JANESVILLE     CLEAR     34  28  80 W6        29.98R WCI  29
$$

WIZ051-052-058>065-066-070>072-301100-
SOUTHEAST WISCONSIN

CITY           SKY/WX    TMP DP  RH WIND       PRES   REMARKS
MILWAUKEE      PTCLDY    36  29  75 W5        29.94R WCI  32
WAUKESHA       CLEAR     34  28  80 W7        29.95R WCI  28
MILWAUKEE/TIMM CLEAR     34  28  80 W7        29.94R WCI  28
RACINE         CLEAR     35  28  75 W7        29.96R WCI  29
BURLINGTON     CLEAR     28  26  93 SW3       29.96R
KENOSHA        CLEAR     33  29  85 W9        29.95R WCI  25
FOND DU LAC    CLEAR     34  27  75 SW7       29.91R WCI  28
SHEBOYGAN      CLEAR     36  28  73 W9        29.89R WCI  29
WEST BEND      CLEAR     36  28  75 W12       29.91R WCI  27
JUNEAU         CLEAR     32  27  81 SW8       29.94R WCI  25
$$

LSZ147-162-301100-
LAKE SUPERIOR

STATION/POSITION TIME  TEMP    WIND        PRES    WAVE
                       AIR SEA DIR/SP/G            HT/PER
                 (UTC) (F)     (DEG/KT/KT) (MB)    (FT/S)
DEVILS ISLAND    1000   38     270/ 16/ 17 1010.9R
PORT WING        0900   39     240/ 10/ 18 1011.2R
SAXON HARBOR     0900   38     220/  8/ 11 1009.8
$$

LMZ867-665-643>646-301100-
LAKE MICHIGAN

STATION/POSITION TIME  TEMP    WIND        PRES    WAVE
                       AIR SEA DIR/SP/G            HT/PER
                 (UTC) (F)     (DEG/KT/KT) (MB)    (FT/S)
NORTHPORT PIER   1000   36     240/  6/ 23 1007.8S
SISTER BAY       0902   34     260/ 13/ 14   N/A
KEWAUNEE LAKESHO 0900   38     280/  9/ 12 1009.4R
SHEBOYGAN LAKESH 1000   38     260/  9/ 11 1013.0R
PORT WASHINGTON  0940   38     270/  4/  8 1013.5R
MILWAUKEE LAKESH 1000   40     280/  8/ 11   N/A
KENOSHA   LAKESH 1000   38     270/  9/ 12 1014.6R
$$

TC  - TEMPERATURE IN CELSIUS
VSB - VISIBILITY IN STATUTE MILES
WCI - WIND CHILL INDEX
HX  - HEAT INDEX



USA.gov is the U.S. government's official web portal to all federal, state and local government web resources and services.